Regional Weather Roundup
Issued by NWS

Home | Current Version | Previous Version | Graphics & Text | Print | Product List | Glossary On
Versions: 1 2 3 4 5 6 7 8 9 10 11 12 13 14 15 16 17 18 19 20 21 22 23 24 25 26 27 28 29 30 31 32 33 34 35 36 37 38 39 40 41 42 43 44 45 46 47 48 49 50
000
ASUS43 KLSX 310707
RWRMO

WEATHER SUMMARY FOR MISSOURI
NATIONAL WEATHER SERVICE SPRINGFIELD MO
200 AM CDT TUE MAY 31 2016

NOTE: "FAIR" INDICATES FEW OR NO CLOUDS BELOW 12,000 FEET WITH NO
       SIGNIFICANT WEATHER AND/OR OBSTRUCTIONS TO VISIBILITY.
       CURRENT SKY AND/OR WEATHER CONDITIONS ARE NOT AVAILABLE FOR
       CHILLICOTHE AND FARMINGTON.

MOZ001>031-035>038-043-044-053-054-310800-
...NORTHERN AND WESTERN MISSOURI...

CITY           SKY/WX    TMP DP  RH WIND       PRES   REMARKS
KANSAS CTY INT CLEAR     61  58  90 S7        29.95F
KANSAS C DTWN  CLEAR     65  59  81 SW7       29.94F
LEE`S SUMMIT   CLOUDY    64  60  87 S8        29.96F
ST JOSEPH      CLOUDY    64  61  90 S6        29.94S
CHILLICOTHE      N/A     61  60  97 CALM      29.97F
KIRKSVILLE     CLOUDY    62  60  93 CALM      29.98F

$$
MOZ066>068-077>081-088>096-101>105-310800-
...SOUTHWEST MISSOURI...

CITY           SKY/WX    TMP DP  RH WIND       PRES   REMARKS
SPRINGFIELD    CLOUDY    66  60  81 S8        29.95F
JOPLIN         MOCLDY    66  64  93 SE7       29.93F

$$
MOZ032>034-039>042-045>050-055>058-069>072-310800-
...CENTRAL MISSOURI...

CITY           SKY/WX    TMP DP  RH WIND       PRES   REMARKS
COLUMBIA       CLOUDY    65  62  90 NE3       29.98F
JEFFERSON CITY CLOUDY    66  62  87 CALM      29.97F
ROLLA          CLOUDY    64  60  87 SE3       29.97S
SEDALIA        CLOUDY    64  61  90 CALM      29.98F
WARRENSBURG    CLOUDY    61  59  94 CALM      29.96F

$$
MOZ051-052-059>065-310800-
...EAST CENTRAL MISSOURI...

CITY           SKY/WX    TMP DP  RH WIND       PRES   REMARKS
ST LOUIS INTL  CLOUDY    72  61  68 CALM      29.98S
SPIRIT OF STL  MOCLDY    66  65  96 CALM      29.97R
ST CHARLES     CLOUDY    70  64  81 N3        29.97R

$$
MOZ072>076-082>087-097>100-106>115-310800-
...SOUTH CENTRAL AND SOUTHEAST MISSOURI...

CITY           SKY/WX    TMP DP  RH WIND       PRES   REMARKS
CAPE GIRARDEAU CLOUDY    70  67  90 CALM      29.94F
FARMINGTON     MOCLDY    66  63  90 CALM      29.99S
POPLAR BLUFF   CLOUDY    70  66  87 CALM      29.95S
WEST PLAINS    CLOUDY    65  61  87 CALM      29.99F

$$


USA.gov is the U.S. government's official web portal to all federal, state and local government web resources and services.